Time,TemperatureF,DewpointF,PressureIn,WindDirection,WindDirectionDegrees,WindSpeedMPH,WindSpeedGustMPH,Humidity,HourlyPrecipIn,Conditions,Clouds,dailyrainin,SoftwareType,DateUTC
2013-11-05 00:23:00,46.0,36.0,-100.00,West,275,1.0,5.0,68,0.00,,,-99.99,,2013-11-05 05:23:00,
2013-11-05 00:54:00,45.0,36.0,-100.00,NE,50,0.0,4.0,69,0.00,,,-99.99,,2013-11-05 05:54:00,
2013-11-05 01:22:00,44.0,37.0,-100.00,North,350,1.0,4.0,77,0.00,,,-99.99,,2013-11-05 06:22:00,
2013-11-05 01:52:00,46.0,37.0,-100.00,WSW,250,1.0,6.0,70,0.00,,,-99.99,,2013-11-05 06:52:00,
2013-11-05 02:02:00,46.0,37.0,-100.00,WSW,250,1.0,6.0,70,0.00,,,-99.99,,2013-11-05 07:02:00,
2013-11-05 02:22:00,46.0,37.0,-100.00,West,280,1.0,6.0,71,0.00,,,-99.99,,2013-11-05 07:22:00,
2013-11-05 02:52:00,46.0,36.0,-100.00,West,275,0.0,7.0,68,0.00,,,-99.99,,2013-11-05 07:52:00,
2013-11-05 03:22:00,46.0,37.0,-100.00,West,260,1.0,4.0,70,0.00,,,-99.99,,2013-11-05 08:22:00,
2013-11-05 03:52:00,45.0,37.0,-100.00,WSW,240,0.0,7.0,72,0.00,,,-99.99,,2013-11-05 08:52:00,
2013-11-05 04:22:00,46.0,36.0,-100.00,SW,235,1.0,5.0,69,0.00,,,-99.99,,2013-11-05 09:22:00,
2013-11-05 04:53:00,47.0,35.0,-100.00,WSW,250,0.0,5.0,62,0.00,,,-99.99,,2013-11-05 09:53:00,
2013-11-05 05:23:00,47.0,35.0,-100.00,SSE,165,1.0,6.0,64,0.00,,,-99.99,,2013-11-05 10:23:00,
2013-11-05 05:42:00,46.0,36.0,-100.00,WSW,250,1.0,4.0,66,0.00,,,-99.99,,2013-11-05 10:42:00,
2013-11-05 05:53:00,46.0,36.0,-100.00,SSW,210,1.0,7.0,69,0.00,,,-99.99,,2013-11-05 10:53:00,
2013-11-05 06:22:00,46.0,35.0,-100.00,SSW,200,1.0,8.0,65,0.00,,,-99.99,,2013-11-05 11:22:00,
2013-11-05 06:52:00,46.0,36.0,-100.00,South,180,1.0,3.0,68,0.00,,,-99.99,,2013-11-05 11:52:00,
2013-11-05 07:22:00,46.0,35.0,-100.00,West,270,2.0,7.0,65,0.00,,,-99.99,,2013-11-05 12:22:00,
2013-11-05 07:52:00,46.0,35.0,-100.00,SSE,165,1.0,6.0,66,0.00,,,-99.99,,2013-11-05 12:52:00,
2013-11-05 08:22:00,46.0,35.0,-100.00,SW,215,1.0,9.0,66,0.00,,,-99.99,,2013-11-05 13:22:00,
2013-11-05 08:52:00,47.0,35.0,-100.00,SE,135,1.0,7.0,64,0.00,,,-99.99,,2013-11-05 13:52:00,
2013-11-05 09:22:00,49.0,35.0,-100.00,SSE,160,2.0,4.0,59,0.00,,,-99.99,,2013-11-05 14:22:00,
2013-11-05 09:52:00,50.0,35.0,-100.00,South,185,2.0,6.0,56,0.00,,,-99.99,,2013-11-05 14:52:00,
2013-11-05 10:11:00,51.0,35.0,-100.00,South,190,2.0,6.0,54,0.00,,,-99.99,,2013-11-05 15:11:00,
2013-11-05 10:22:00,52.0,36.0,-100.00,South,185,2.0,4.0,55,0.00,,,-99.99,,2013-11-05 15:22:00,
2013-11-05 10:33:00,52.0,36.0,-100.00,South,185,2.0,4.0,55,0.00,,,-99.99,,2013-11-05 15:33:00,
2013-11-05 10:53:00,53.0,36.0,-100.00,South,170,2.0,5.0,51,0.00,,,-99.99,,2013-11-05 15:53:00,
2013-11-05 11:03:00,53.0,36.0,-100.00,South,170,2.0,5.0,51,0.00,,,-99.99,,2013-11-05 16:03:00,
2013-11-05 11:23:00,54.0,37.0,-100.00,South,190,2.0,6.0,51,0.00,,,-99.99,,2013-11-05 16:23:00,
2013-11-05 11:52:00,56.0,37.0,-100.00,South,190,2.0,6.0,49,0.00,,,-99.99,,2013-11-05 16:52:00,
2013-11-05 12:22:00,57.0,39.0,-100.00,SE,130,2.0,6.0,50,0.00,,,-99.99,,2013-11-05 17:22:00,
2013-11-05 12:52:00,57.0,38.0,-100.00,SE,145,1.0,4.0,49,0.00,,,-99.99,,2013-11-05 17:52:00,
2013-11-05 13:22:00,57.0,39.0,-100.00,SSW,195,2.0,4.0,50,0.00,,,-99.99,,2013-11-05 18:22:00,
2013-11-05 13:52:00,58.0,39.0,-100.00,SSE,165,2.0,5.0,48,0.00,,,-99.99,,2013-11-05 18:52:00,
2013-11-05 14:22:00,60.0,40.0,-100.00,SSE,160,2.0,5.0,48,0.00,,,-99.99,,2013-11-05 19:22:00,
2013-11-05 14:52:00,60.0,39.0,-100.00,SSW,210,2.0,4.0,46,0.00,,,-99.99,,2013-11-05 19:52:00,
2013-11-05 15:22:00,60.0,40.0,-100.00,South,190,2.0,6.0,48,0.00,,,-99.99,,2013-11-05 20:22:00,
2013-11-05 15:52:00,59.0,40.0,-100.00,SSE,165,2.0,4.0,47,0.00,,,-99.99,,2013-11-05 20:52:00,
2013-11-05 16:12:00,60.0,41.0,-100.00,SE,130,2.0,5.0,49,0.00,,,-99.99,,2013-11-05 21:12:00,
2013-11-05 16:22:00,60.0,39.0,-100.00,SSE,155,1.0,3.0,47,0.00,,,-99.99,,2013-11-05 21:22:00,
2013-11-05 16:54:00,58.0,41.0,-100.00,South,185,1.0,3.0,52,0.00,,,-99.99,,2013-11-05 21:54:00,
2013-11-05 17:13:00,58.0,40.0,-100.00,SE,145,2.0,4.0,50,0.00,,,-99.99,,2013-11-05 22:13:00,
2013-11-05 17:23:00,57.0,40.0,-100.00,South,185,2.0,3.0,52,0.00,,,-99.99,,2013-11-05 22:23:00,
2013-11-05 17:53:00,55.0,40.0,-100.00,SE,135,1.0,3.0,55,0.00,,,-99.99,,2013-11-05 22:53:00,
2013-11-05 18:03:00,55.0,40.0,-100.00,SE,135,1.0,3.0,55,0.00,,,-99.99,,2013-11-05 23:03:00,
2013-11-05 18:22:00,55.0,39.0,-100.00,SSE,160,3.0,6.0,55,0.00,,,-99.99,,2013-11-05 23:22:00,
2013-11-05 18:53:00,54.0,39.0,-100.00,SSE,165,2.0,4.0,57,0.00,,,-99.99,,2013-11-05 23:53:00,
2013-11-05 19:22:00,52.0,40.0,-100.00,South,170,1.0,2.0,62,0.00,,,-99.99,,2013-11-06 00:22:00,
2013-11-05 19:42:00,53.0,39.0,-100.00,West,270,1.0,9.0,58,0.00,,,-99.99,,2013-11-06 00:42:00,
2013-11-05 19:52:00,51.0,40.0,-100.00,SSW,195,1.0,4.0,67,0.00,,,-99.99,,2013-11-06 00:52:00,
2013-11-05 20:22:00,51.0,40.0,-100.00,West,275,0.0,6.0,67,0.00,,,-99.99,,2013-11-06 01:22:00,
2013-11-05 20:52:00,49.0,40.0,-100.00,West,270,2.0,7.0,70,0.00,,,-99.99,,2013-11-06 01:52:00,
2013-11-05 21:23:00,48.0,38.0,-100.00,West,275,4.0,7.0,67,0.00,,,-99.99,,2013-11-06 02:23:00,
2013-11-05 21:52:00,47.0,39.0,-100.00,NE,45,1.0,6.0,73,0.00,,,-99.99,,2013-11-06 02:52:00,
2013-11-05 22:22:00,45.0,38.0,-100.00,West,260,2.0,8.0,75,0.00,,,-99.99,,2013-11-06 03:22:00,
2013-11-05 22:54:00,47.0,38.0,-100.00,West,280,2.0,6.0,70,0.00,,,-99.99,,2013-11-06 03:54:00,
2013-11-05 23:05:00,47.0,38.0,-100.00,West,280,2.0,6.0,70,0.00,,,-99.99,,2013-11-06 04:05:00,
2013-11-05 23:24:00,45.0,38.0,-100.00,NW,310,0.0,5.0,75,0.00,,,-99.99,,2013-11-06 04:24:00,
2013-11-05 23:53:00,43.0,37.0,-100.00,West,270,0.0,5.0,79,0.00,,,-99.99,,2013-11-06 04:53:00,